This is the latest recevied weather packets stored in our database for station/object RODN. If no packets are shown the sender has not sent any weather packets the latest 1 day(s).
| Time | Temp. | Humidity | Pressure | Rain* | Wind** | Luminosity | Snow |
|---|---|---|---|---|---|---|---|
| 1778043225 | - | - | 1021.3 hPa | - | 4.47 m/s, 40° | - | - |
| 1778042627 | - | - | 1021.3 hPa | - | 4.47 m/s, 60° | - | - |
| 1778042027 | - | - | 1021.3 hPa | - | 4.47 m/s, 60° | - | - |
| 1778041427 | - | - | 1021.3 hPa | - | 2.24 m/s, 110° | - | - |
| 1778040829 | - | - | 1021.3 hPa | - | 2.24 m/s, 110° | - | - |
| 1778040347 | - | - | 1021.3 hPa | - | 2.24 m/s, 140° | - | - |
| 1778039624 | 21.67° C | 94% | 1015.9 hPa | - | 2.24 m/s, 120° | - | - |
| 1778039032 | 21.67° C | 94% | 1015.9 hPa | - | 2.24 m/s, 120° | - | - |
| 1778038431 | - | - | 1022 hPa | - | 4.47 m/s, 60° | - | - |
| 1778037829 | - | - | 1022 hPa | - | 4.47 m/s, 60° | - | - |
| 1778037226 | - | - | 1022 hPa | - | 3.58 m/s, 60° | - | - |
| 1778036624 | - | - | 1022 hPa | - | 3.58 m/s, 40° | - | - |
| 1778036025 | - | - | 1023 hPa | - | 3.58 m/s, 40° | - | - |
| 1778035425 | - | - | 1023 hPa | - | 4.02 m/s, 30° | - | - |
| 1778034824 | - | - | 1023 hPa | - | 1.79 m/s, 10° | - | - |
| 1778034227 | - | - | 1023 hPa | - | 1.79 m/s, 10° | - | - |
| 1778033626 | - | - | 1023 hPa | - | 1.79 m/s, 10° | - | - |
| 1778033027 | - | - | 1023 hPa | - | 2.68 m/s, 360° | - | - |
| 1778032427 | 22.78° C | 94% | 1024 hPa | - | 2.68 m/s, 360° | - | - |
| 1778031826 | 22.78° C | 94% | 1015.6 hPa | - | 1.79 m/s, 360° | - | - |
| 1778031227 | 22.78° C | 94% | 1015.6 hPa | - | 1.79 m/s, 360° | - | - |
| 1778030625 | 22.78° C | 94% | 1014.9 hPa | - | 4.02 m/s, 20° | - | - |
| 1778030027 | 22.78° C | 94% | 1014.2 hPa | - | 4.92 m/s, 20° | - | - |
| 1778029425 | 22.78° C | 94% | 1014.9 hPa | - | 2.68 m/s, 20° | - | - |
| 1778028828 | 22.78° C | 94% | 1014.9 hPa | - | 2.68 m/s, 20° | - | - |
* Rain since midnight (hover to see other rain measurements)
** Current wind speed in m/s (hover to see current wind gust speed)